LEMUR-2 EMARCHIA

导读

LEMUR‑2 EMARCHIA(NORAD编号68492)属于美国Spire全球公司运营的LEMUR‑2纳米卫星星座,是一颗3U立方星。作为低地球轨道多用途接收器卫星家族成员,它运行在400‑600公里高度的近地轨道,主要承担无线电掩星探测和船舶自动识别系统(AIS)船舶跟踪任务,部分同类型卫星还具备GNSS反射测量观测能力,可服务于气象监测与海洋研究,目前该卫星仍保持在轨运行状态,为地球观测和海事监测提供实时数据支撑。

基本信息
目录编号:
68492
目录名称:
LEMUR-2 EMARCHIA
国际标识:
2026-067CE
轨道中心:
EARTH
卫星名称:
LEMUR-2 EMARCHIA
卫星全名:
LEMUR-2 EMARCHIA
卫星状态:
在轨 (已飞行77 天)
发射日期:
2026-03-30 UTC
国别 :
德国 (DE)
星等 :
--
轨道信息
数据来源 国际轨道数据 AOE轨道数据
星历时间 2026-06-15T04:35:46+0800
10小时前
查看轨道信息
2026-06-15T07:00:00+0800
8小时前
查看轨道信息
半长轴 6970.859km 6970.855km
偏心率 0.0005337 0.0005383
轨道倾角 97.756° 97.757°
近地点辐角 71.694° 71.384°
升交点赤经 124.067° 124.164°
平近点角 288.486° 106.321°
近地点 589.001km 588.965km
远地点 596.443km 596.471km
周期 96.536分钟 96.536分钟
每日圈数 14.916722 14.916733
详细信息
使用方式:
暂无
2D轨道图
3D轨道图
轨道高度分析图
轨道倾角分析图
轨道综合分析图
查看轨道综合分析图